When you browse on this site, cookies collect data to enhance your experience and personalize the content and advertising you see.
Visit our Privacy Policy to learn more. By continuing to use the site, you agree to this use of cookies and data.
  • Em Portugal
  • Lista de países
  • Para 7 dias
  • Temperatura da água
  • Mapas de satélite
  • Mapa do tempo
  • Widgets de tempo
  • user-avatar
    Iniciar Sessão

    Previsão horária em Sedziszowice

    Hoje, 24 Março, Domingo

    Tempo Temperatura Precipitação Vento Pressão Humidade
    00:00 +9°C° 0 mm 2 m/s 750 mmHg 65%
    01:00 +9°C° 0 mm 2 m/s 750 mmHg 70%
    02:00 +9°C° 0 mm 2 m/s 750 mmHg 74%
    03:00 +9°C° 0 mm 3 m/s 750 mmHg 79%
    04:00 +9°C° 0 mm 3 m/s 750 mmHg 83%
    05:00 +9°C° 0.1 mm 3 m/s 750 mmHg 84%
    06:00 +8°C° 0.1 mm 3 m/s 750 mmHg 85%
    07:00 +7°C° 0.1 mm 4 m/s 750 mmHg 86%
    08:00 +8°C° 0 mm 3 m/s 750 mmHg 80%
    09:00 +9°C° 0 mm 3 m/s 750 mmHg 74%
    10:00 +9°C° 0 mm 2 m/s 750 mmHg 68%
    11:00 +10°C° 0 mm 2 m/s 750 mmHg 62%
    12:00 +12°C° 0 mm 2 m/s 749 mmHg 56%
    13:00 +13°C° 0 mm 2 m/s 749 mmHg 51%
    14:00 +13°C° 0 mm 2 m/s 748 mmHg 49%
    15:00 +14°C° 0 mm 2 m/s 748 mmHg 47%
    16:00 +14°C° 0 mm 2 m/s 747 mmHg 45%
    17:00 +13°C° 0 mm 1 m/s 747 mmHg 47%
    18:00 +12°C° 0 mm 1 m/s 747 mmHg 49%
    19:00 +11°C° 0 mm 1 m/s 746 mmHg 51%
    20:00 +11°C° 0.2 mm 1 m/s 746 mmHg 54%
    21:00 +9°C° 0.2 mm 2 m/s 746 mmHg 57%
    22:00 +8°C° 0.2 mm 2 m/s 745 mmHg 60%
    23:00 +8°C° 0.3 mm 2 m/s 745 mmHg 64%

    Amanhã, 25 Março, Segunda-feira

    Tempo Temperatura Precipitação Vento Pressão Humidade
    00:00 +8°C° 0.3 mm 1 m/s 744 mmHg 68%
    01:00 +8°C° 0.3 mm 1 m/s 744 mmHg 71%
    02:00 +7°C° 0.2 mm 1 m/s 744 mmHg 74%
    03:00 +7°C° 0.2 mm 1 m/s 743 mmHg 76%
    04:00 +7°C° 0.2 mm 1 m/s 742 mmHg 79%
    05:00 +6°C° 0.1 mm 2 m/s 742 mmHg 78%
    06:00 +6°C° 0.1 mm 2 m/s 742 mmHg 77%
    07:00 +7°C° 0.1 mm 3 m/s 742 mmHg 77%
    08:00 +7°C° 0.1 mm 3 m/s 742 mmHg 70%
    09:00 +8°C° 0.1 mm 3 m/s 742 mmHg 64%
    10:00 +8°C° 0.1 mm 4 m/s 742 mmHg 57%
    11:00 +10°C° 0.1 mm 4 m/s 741 mmHg 51%
    12:00 +10°C° 0.1 mm 5 m/s 741 mmHg 46%
    13:00 +10°C° 0.1 mm 6 m/s 740 mmHg 40%
    14:00 +10°C° 0.1 mm 5 m/s 740 mmHg 43%
    15:00 +9°C° 0.1 mm 5 m/s 740 mmHg 46%
    16:00 +8°C° 0.1 mm 5 m/s 740 mmHg 49%
    17:00 +7°C° 0.2 mm 5 m/s 741 mmHg 55%
    18:00 +6°C° 0.2 mm 5 m/s 741 mmHg 60%
    19:00 +5°C° 0.2 mm 5 m/s 742 mmHg 65%
    20:00 +5°C° 0.1 mm 5 m/s 743 mmHg 66%
    21:00 +3°C° 0.1 mm 5 m/s 744 mmHg 68%
    22:00 +3°C° 0.1 mm 5 m/s 744 mmHg 70%
    23:00 +2°C° 0 mm 5 m/s 745 mmHg 72%

    Depois de amanhã, 26 Março, Terça-feira

    Tempo Temperatura Precipitação Vento Pressão Humidade
    00:00 +3°C° 0 mm 4 m/s 746 mmHg 75%
    01:00 +1°C° 0 mm 4 m/s 746 mmHg 77%
    02:00 +1°C° 0 mm 5 m/s 747 mmHg 79%
    03:00 +1°C° 0 mm 5 m/s 747 mmHg 80%
    04:00 0°C° 0 mm 5 m/s 747 mmHg 82%
    05:00 +1°C° 0 mm 5 m/s 748 mmHg 81%
    06:00 +1°C° 0 mm 5 m/s 749 mmHg 81%
    07:00 +1°C° 0 mm 4 m/s 749 mmHg 80%
    08:00 +2°C° 0 mm 5 m/s 750 mmHg 75%
    09:00 +3°C° 0 mm 5 m/s 750 mmHg 69%
    10:00 +5°C° 0 mm 5 m/s 750 mmHg 63%
    11:00 +6°C° 0 mm 5 m/s 750 mmHg 61%
    12:00 +6°C° 0 mm 5 m/s 750 mmHg 59%
    13:00 +5°C° 0 mm 6 m/s 750 mmHg 57%
    14:00 +7°C° 0 mm 6 m/s 750 mmHg 54%
    15:00 +7°C° 0 mm 6 m/s 750 mmHg 51%
    16:00 +8°C° 0 mm 6 m/s 750 mmHg 48%
    17:00 +7°C° 0 mm 5 m/s 750 mmHg 51%
    18:00 +6°C° 0 mm 4 m/s 750 mmHg 54%
    19:00 +7°C° 0 mm 3 m/s 750 mmHg 57%
    20:00 +5°C° 0.1 mm 3 m/s 751 mmHg 60%
    21:00 +5°C° 0.1 mm 3 m/s 751 mmHg 63%
    22:00 +4°C° 0.1 mm 4 m/s 751 mmHg 66%
    23:00 +4°C° 0 mm 3 m/s 751 mmHg 68%

    27 Março, Quarta-feira

    Tempo Temperatura Precipitação Vento Pressão Humidade
    00:00 +4°C° 0 mm 3 m/s 752 mmHg 70%
    01:00 +3°C° 0 mm 3 m/s 752 mmHg 72%
    02:00 +4°C° 0 mm 2 m/s 752 mmHg 76%
    03:00 +3°C° 0 mm 2 m/s 752 mmHg 79%
    04:00 +3°C° 0 mm 2 m/s 752 mmHg 83%
    05:00 +3°C° 0 mm 2 m/s 752 mmHg 82%
    06:00 +3°C° 0 mm 2 m/s 753 mmHg 82%
    07:00 +3°C° 0 mm 2 m/s 753 mmHg 81%
    08:00 +5°C° 0 mm 2 m/s 753 mmHg 73%
    09:00 +6°C° 0 mm 2 m/s 753 mmHg 64%
    10:00 +7°C° 0 mm 3 m/s 754 mmHg 55%
    11:00 +8°C° 0 mm 3 m/s 753 mmHg 52%
    12:00 +8°C° 0 mm 3 m/s 753 mmHg 50%
    13:00 +9°C° 0 mm 3 m/s 753 mmHg 47%
    14:00 +9°C° 0 mm 3 m/s 753 mmHg 47%
    15:00 +9°C° 0 mm 3 m/s 753 mmHg 47%
    16:00 +9°C° 0 mm 3 m/s 753 mmHg 47%
    17:00 +8°C° 0 mm 3 m/s 753 mmHg 51%
    18:00 +7°C° 0 mm 2 m/s 753 mmHg 56%
    19:00 +6°C° 0 mm 2 m/s 753 mmHg 60%
    20:00 +6°C° 0 mm 2 m/s 754 mmHg 63%
    21:00 +5°C° 0 mm 2 m/s 754 mmHg 66%
    22:00 +5°C° 0 mm 2 m/s 754 mmHg 69%
    23:00 +5°C° 0 mm 2 m/s 754 mmHg 70%

    28 Março, Quinta-feira

    Tempo Temperatura Precipitação Vento Pressão Humidade
    00:00 +4°C° 0 mm 2 m/s 754 mmHg 72%
    01:00 +4°C° 0 mm 2 m/s 754 mmHg 73%
    02:00 +4°C° 0 mm 2 m/s 754 mmHg 76%
    03:00 +4°C° 0 mm 2 m/s 754 mmHg 79%
    04:00 +3°C° 0 mm 2 m/s 754 mmHg 81%
    05:00 +4°C° 0.1 mm 2 m/s 754 mmHg 80%
    06:00 +4°C° 0.1 mm 2 m/s 754 mmHg 80%
    07:00 +5°C° 0.1 mm 2 m/s 755 mmHg 79%
    08:00 +6°C° 0.1 mm 2 m/s 755 mmHg 76%
    09:00 +7°C° 0.1 mm 2 m/s 755 mmHg 73%
    10:00 +8°C° 0.1 mm 2 m/s 755 mmHg 71%
    11:00 +9°C° 0 mm 2 m/s 755 mmHg 66%
    12:00 +10°C° 0 mm 2 m/s 755 mmHg 61%
    13:00 +12°C° 0 mm 2 m/s 754 mmHg 56%
    14:00 +13°C° 0.1 mm 2 m/s 754 mmHg 56%
    15:00 +13°C° 0.1 mm 2 m/s 754 mmHg 55%
    16:00 +13°C° 0.1 mm 2 m/s 754 mmHg 55%
    17:00 +12°C° 0.1 mm 2 m/s 754 mmHg 60%
    18:00 +11°C° 0.1 mm 1 m/s 754 mmHg 65%
    19:00 +10°C° 0.1 mm 1 m/s 754 mmHg 70%
    20:00 +9°C° 0 mm 1 m/s 755 mmHg 74%
    21:00 +8°C° 0 mm 1 m/s 755 mmHg 78%
    22:00 +7°C° 0 mm 1 m/s 755 mmHg 81%
    23:00 +7°C° 0 mm 1 m/s 755 mmHg 83%

    29 Março, Sexta-feira

    Tempo Temperatura Precipitação Vento Pressão Humidade
    00:00 +6°C° 0 mm 1 m/s 755 mmHg 85%
    01:00 +5°C° 0 mm 0 m/s 755 mmHg 87%
    02:00 +5°C° 0 mm 0 m/s 755 mmHg 87%
    03:00 +4°C° 0 mm 0 m/s 755 mmHg 88%
    04:00 +4°C° 0 mm 0 m/s 755 mmHg 88%
    05:00 +5°C° 0 mm 0 m/s 755 mmHg 86%
    06:00 +5°C° 0 mm 0 m/s 756 mmHg 83%
    07:00 +7°C° 0 mm 1 m/s 756 mmHg 81%
    08:00 +8°C° 0 mm 0 m/s 756 mmHg 74%
    09:00 +9°C° 0 mm 0 m/s 756 mmHg 67%
    10:00 +11°C° 0 mm 0 m/s 756 mmHg 60%
    11:00 +13°C° 0 mm 1 m/s 756 mmHg 56%
    12:00 +13°C° 0 mm 1 m/s 755 mmHg 51%
    13:00 +14°C° 0 mm 1 m/s 755 mmHg 47%
    14:00 +14°C° 0 mm 1 m/s 755 mmHg 46%
    15:00 +14°C° 0 mm 1 m/s 754 mmHg 45%
    16:00 +14°C° 0 mm 1 m/s 754 mmHg 44%
    17:00 +13°C° 0 mm 1 m/s 754 mmHg 48%
    18:00 +12°C° 0 mm 1 m/s 754 mmHg 52%
    19:00 +9°C° 0 mm 0 m/s 754 mmHg 56%
    20:00 +9°C° 0 mm 0 m/s 754 mmHg 58%
    21:00 +9°C° 0 mm 1 m/s 754 mmHg 61%
    22:00 +9°C° 0 mm 1 m/s 754 mmHg 63%
    23:00 +8°C° 0 mm 1 m/s 754 mmHg 65%
    Mostrar mais